ASTROCAST-0204 (48952 NORAD) Tracking and Keplerian Element Data

This shows tracking and keplerian element data for the satellite.

Feedback or suggestion? Click here.




ElementValue
Catalog48952
NameASTROCAST-0204
Epoch Orbit1397
Epoch Day269.15315309
Epoch Year2021
RAAN36.8431
Inclination97.5243
Eccentricity0.0015256
Argument of Perigee293.1166
Mean Anonmoly66.8457
Mean Motion15.14238967
Decay Rate1.574E-05
L11 48952U 21059CB 21269.15315309 .00001574 00000-0 89562-4 0 9993
L22 48952 97.5243 36.8431 0015256 293.1166 66.8457 15.14238967 13974

Live tracking and technical data element details for ASTROCAST-0204 (NORAD 48952). ASTROCAST-0204 can be tracked NOW for your location showing map with azimuth and elevation plus other details from your city location.

Track the satellite on the map from your city or location and see movement details for azimuth, elevation, latitude, longitude, range, height, and movement on the map or in text.







IsCatalogInMostPopularTable: catalog: 48952, numindb: 14
Update: records affected: 1



GetName: 48952 ASTROCAST-0204

Hit Count: updated at: Sun, 26 Sep 2021 16:47:41 GMT